Millville, NJ

12:43 PM EST on February 21, 2017 (GMT -0500)
Millville Municipal

Weather History for KMIV - March, 2013

Change the Weather History Date:

Friday, March 1, 2013

  Actual Average Record
Temperature  
Mean Temperature 37 °F -  
Max Temperature 44 °F 47 °F 75 °F (1972)
Min Temperature 30 °F 26 °F 9 °F (1980)
Degree Days  
Heating Degree Days 28    
Moisture  
Dew Point 28 °F    
Average Humidity 67    
Maximum Humidity 89    
Minimum Humidity 51    
Precipitation  
Precipitation 0.00 in - - ()
Sea Level Pressure  
Sea Level Pressure 29.75 in    
Wind  
Wind Speed 7 mph (WNW)    
Max Wind Speed 13 mph    
Max Gust Speed 17 mph    
Visibility 10 miles    
Events      
Averages and records for this station are not official NWS values.
T = Trace of Precipitation, MM = Missing Value Source: NWS Daily Summary

Daily Weather History Graph

Daily Weather History Graph

Search for Another Location

Airport or City:

Trip Planner

Search our weather history database for the weather conditions in past years. The results will help you decide how hot, cold, wet, or windy it might be!

Date:

Astronomy

Mar. 01, 2013 Rise Set
Actual Time 6:32 AM EST 5:52 PM EST
Civil Twilight 6:05 AM EST 6:19 PM EST
Nautical Twilight 5:34 AM EST 6:50 PM EST
Astronomical Twilight 5:03 AM EST 7:22 PM EST
Moon 10:21 PM EST (3/1) 8:19 AM EST (3/1)
Length of Visible Light 12h 14m
Length of Day
11h 20m
Waning Gibbous, 83% of the Moon is Illuminated
Mar 1
Waning Gibbous
Mar 4
Last Quarter
Mar 11
New
Mar 19
First Quarter
Mar 27
Full

Hourly Weather History & Observations

Time (EST) Temp. Windchill Dew Point Humidity Pressure Visibility Wind Dir Wind Speed Gust Speed Precip Events Conditions
12:54 AM 33.1 °F 26.9 °F 28.0 °F 82% 29.67 in 10.0 mi West 6.9 mph - N/A   Clear
1:54 AM 35.1 °F 29.3 °F 28.9 °F 78% 29.68 in 10.0 mi West 6.9 mph - N/A   Clear
2:54 AM 34.0 °F 28.0 °F 28.9 °F 82% 29.68 in 10.0 mi West 6.9 mph - N/A   Clear
3:54 AM 33.1 °F 26.9 °F 28.0 °F 82% 29.69 in 10.0 mi West 6.9 mph - N/A   Clear
4:54 AM 32.0 °F 27.5 °F 28.0 °F 85% 29.71 in 10.0 mi West 4.6 mph - N/A   Clear
5:54 AM 30.9 °F 26.2 °F 28.0 °F 89% 29.71 in 9.0 mi West 4.6 mph - N/A   Mostly Cloudy
6:54 AM 30.9 °F 26.2 °F 28.0 °F 89% 29.71 in 6.0 mi West 4.6 mph - N/A   Clear
7:54 AM 37.0 °F 31.0 °F 30.0 °F 76% 29.74 in 8.0 mi WNW 8.1 mph - N/A   Clear
8:54 AM 42.1 °F 36.6 °F 30.9 °F 65% 29.75 in 10.0 mi WNW 9.2 mph - N/A   Clear
9:54 AM 42.1 °F 35.2 °F 28.9 °F 60% 29.75 in 10.0 mi NW 12.7 mph - N/A   Overcast
10:54 AM 43.0 °F 38.8 °F 28.0 °F 56% 29.75 in 10.0 mi NNW 6.9 mph - N/A   Overcast
1:54 PM 44.1 °F 39.0 °F 27.0 °F 51% 29.74 in 10.0 mi NW 9.2 mph - N/A   Overcast
2:54 PM 43.0 °F 37.7 °F 27.0 °F 53% 29.74 in 10.0 mi NW 9.2 mph - N/A   Overcast
3:54 PM 42.1 °F 35.7 °F 28.0 °F 58% 29.75 in 10.0 mi NNW 11.5 mph 17.3 mph N/A   Overcast
4:54 PM 43.0 °F 37.7 °F 27.0 °F 53% 29.75 in 10.0 mi WNW 9.2 mph - N/A   Overcast
5:54 PM 42.1 °F 36.6 °F 27.0 °F 55% 29.77 in 10.0 mi WNW 9.2 mph - N/A   Overcast
6:54 PM 39.9 °F 37.8 °F 28.0 °F 63% 29.78 in 10.0 mi WNW 3.5 mph - N/A   Overcast
7:54 PM 41.0 °F 36.4 °F 27.0 °F 57% 29.79 in 10.0 mi WNW 6.9 mph - N/A   Overcast
8:54 PM 41.0 °F 35.8 °F 26.1 °F 55% 29.81 in 10.0 mi NW 8.1 mph - N/A   Overcast
9:54 PM 39.9 °F 33.4 °F 25.0 °F 55% 29.82 in 10.0 mi North 10.4 mph - N/A   Overcast
10:54 PM 37.9 °F 32.1 °F 24.1 °F 57% 29.82 in 10.0 mi NNW 8.1 mph 17.3 mph N/A   Scattered Clouds
11:54 PM 36.0 °F 30.3 °F 25.0 °F 64% 29.81 in 10.0 mi NNW 6.9 mph - N/A   Partly Cloudy